Regional Weather Roundup
Issued by NWS

Home | Current Version | Previous Version | Graphics & Text | Print | Product List | Glossary On
Versions: 1 2 3 4 5 6 7 8 9 10 11 12 13 14 15 16 17 18 19 20 21 22 23 24 25 26 27 28 29 30 31 32 33 34 35 36 37 38 39 40 41 42 43 44 45 46 47 48 49 50
000
ASUS43 KLOT 030400
RWRIL

ILLINOIS REGIONAL WEATHER ROUNDUP
NATIONAL WEATHER SERVICE CHICAGO/ROMEOVILLE IL
1100 PM CDT SUN AUG 02 2015

NOTE: "FAIR" INDICATES FEW OR NO CLOUDS BELOW 12,000 FEET WITH NO
SIGNIFICANT WEATHER AND/OR OBSTRUCTIONS TO VISIBILITY.

* THESE STATIONS ARE NOT UNDER NWS QUALITY CONTROL. THEY ALSO MAY NOT
  REPORT WEATHER SUCH AS PRECIPITATION OR FOG.

ILZ001-002-007-009-015-016-024-030500-
NORTHWEST ILLINOIS

CITY           SKY/WX    TMP DP  RH WIND       PRES   REMARKS
MOLINE         PTCLDY    76  67  73 W12       29.75R
STERLING*      PTCLDY    81  73  78 W9        29.70R HX  85
$$

ILZ003-004-008-010-011-017-018-030500-
NORTH CENTRAL ILLINOIS

CITY           SKY/WX    TMP DP  RH WIND       PRES   REMARKS
ROCKFORD       MOCLDY    81  66  60 NW15      29.72R THUNDER HX  83
$$

ILZ005-006-012>014-019>023-030500-
NORTHEAST ILLINOIS

CITY           SKY/WX    TMP DP  RH WIND       PRES   REMARKS
CHICAGO-OHARE  TSTM      68  66  93 N12G36    29.71R VSB 1
CHICAGO-MIDWAY CLOUDY    85  70  60 SW15G22   29.66F HX  89
AURORA         PTCLDY    82  72  71 SW15G23   29.69R HX  87
WAUKEGAN       CLOUDY    67  65  93 SW5       29.72S
DUPAGE AIRPORT TSTM      76  65  68 NW26G37   29.71R
WHEELING       NOT AVBL
NORTHERLY ISL    N/A     71  62  73 N17         N/A
$$

LMZ740>746-030500-
SOUTHERN LAKE MICHIGAN

STATION/POSITION SKY/WX   TEMP    WIND        PRES    VSBY  WAVE
                          AIR SEA DIR/SP/G                  HT/PER
                          (F)     (DEG/KT/KT) (MB)    (MI)  (FT/S)
HARRISON CRIB              85     220/ 22/ 29   N/A
BURNHAM HARBOR             85     230/  6/ 16   N/A
CALUMET HARBOR             83     210/  7/ 18   N/A
BURNS HARBOR               84     220/ 22/ 32 1005.4
MICHIGAN CITY              83     190/ 24/ 28   N/A
MICHIGAN CITY 6N           81 74  230/ 17/ 23   N/A           5/ 4
ST. JOSEPH                 78 73  250/ 14/ 19   N/A           5/ 5
$$

ILZ025>027-034>036-040-047-049-050-058-095>099-030500-
WEST-CENTRAL ILLINOIS

CITY           SKY/WX    TMP DP  RH WIND       PRES   REMARKS
QUINCY         CLOUDY    82  64  54 W10       29.80F HX  83
MACOMB*        MOCLDY    77  72  84 SW7       29.81F
$$

ILZ028>032-037-038-041>044-048-051>054-059>061-030500-
CENTRAL ILLINOIS

CITY           SKY/WX    TMP DP  RH WIND       PRES   REMARKS
DECATUR        PTCLDY    81  68  64 SW12      29.82S HX  84
PEORIA         CLOUDY    82  73  74 SW14      29.75F HX  87
SPRINGFIELD    CLOUDY    80  70  71 SW6       29.81S HX  83
TAYLORVILLE    NOT AVBL
$$

ILZ033-039-045-046-055>057-062-063-030500-
EAST-CENTRAL ILLINOIS

CITY           SKY/WX    TMP DP  RH WIND       PRES   REMARKS
CHAMPAIGN      MOCLDY    74  71  91 S6        29.82R
MATTOON        PTCLDY    78  70  76 SW7       29.83R HX  80
$$

ILZ079-100>102-030500-
SOUTHWEST ILLINOIS

CITY           SKY/WX    TMP DP  RH WIND       PRES   REMARKS
CAHOKIA*       MOCLDY    82  70  66 SW3       29.85R HX  86
$$

ILZ064>066-069>071-074>076-080>082-084>086-088>090-092>094-030500-
SOUTH-CENTRAL ILLINOIS

CITY           SKY/WX    TMP DP  RH WIND       PRES   REMARKS
CARBONDALE     CLEAR     79  71  76 SW7       29.87S HX  82
MT. VERNON     PTCLDY    75  68  78 SW5       29.87S
SALEM*         MOCLDY    82  72  73 SW6       29.85S HX  86
$$

ILZ067-068-072-073-078-083-087-091-030500-
SOUTHEAST ILLINOIS

CITY           SKY/WX    TMP DP  RH WIND       PRES   REMARKS
LAWRENCEVILLE  PTCLDY    75  71  87 S6        29.85F
FLORA*         PTCLDY    78  71  79 SW7       29.86R HX  80
HARRISBURG*    CLEAR     74  73  97 CALM      29.89S
ROBINSON*      PTCLDY    75  71  86 S6        29.86R
CARMI*         CLEAR     74  69  81 S6        29.86F
$$

ABBREVIATIONS USED IN REMARKS
   TC - TEMPERATURE IN CELSIUS
  WCI - WIND CHILL INDEX
   HX - HEAT INDEX
  VSB - VISIBILITY
$$




USA.gov is the U.S. government's official web portal to all federal, state and local government web resources and services.